Location: Unspecified
(48.7670°N, 0.0000°E)
Time: 03:40:55
(UTC+00:00)

Vanguard 2 Rocket - Pass Details

Date: 07 October 2020
Orbit: 554 x 3326 km, 32.9° (Epoch: 26 October)

Event Time Altitude Azimuth Distance (km) Brightness Sun altitude
Exits shadow 01:01:23 37° 134° (SE) 4,058 9.9 -44.1°
Drops below altitude 10° 01:14:07 10° 102° (ESE) 6,268 11.3 -43.1°
Sets 01:19:31 0° 97° (E) 7,309 11.8 -42.7°
